Location: Cisewo
(53.3833°N, 14.9000°E)
Time: 13:11:11
(UTC+00:00)

ATLAS 3B R/B - Pass Details

Date: 18 April 2021
Orbit: 1006 x 1189 km, 63.8° (Epoch: 21 April)

Event Time Altitude Azimuth Distance (km) Brightness Sun altitude
Rises 18:48:38 0° 313° (NW) 3,857 7.5 -6.5°
Reaches altitude 10° 18:51:14 10° 312° (NW) 2,925 6.6 -6.8°
Maximum altitude 18:58:11 79° 227° (SW) 1,139 2.9 -7.7°
Drops below altitude 10° 19:05:27 10° 143° (SE) 3,043 4.5 -8.7°
Enters shadow 19:05:56 - 142° (SE) 3,215 4.6 -8.7°
